Date String (YYYY-MM-DD hh:mm:ss) UTC,Instrument flags,Ambient pressure (hPa),Sample flow (lpm),Bypass flow (lpm),Sample temperature (°C),Ambient temperature (°C),ASC tube jacket temperature (°C),LED temperature (°C),Box temperature (°C),Sample RH (%),Span deviation,Mass concentration (μg/m³),Mass concentration (μg/m³),Mass concentration (μg/m³)
DateTimeUTC,F1_M11,P_M11,Q1_M11,Q2_M11,T1_M11,T2_M11,T3_M11,T4_M11,T5_M11,U1_M11,ZSPAN_M11,X0_M11,X2_M11,X1_M11
2021-12-31 04:00:00,,0808.4,5.00,0.00,22.4,22.9,00.0,31.2,24.3,08.1,0000.0,0001.62,0000.60,0000.30
2021-12-31 04:01:00,,0808.5,4.99,0.00,22.4,22.7,00.0,31.2,24.2,08.1,0000.0,0001.59,0000.60,0000.30
2021-12-31 04:02:00,,0808.6,5.00,0.00,22.4,22.5,00.0,31.2,24.2,08.1,0000.0,0001.69,0000.59,0000.30
2021-12-31 04:03:00,,0808.7,5.01,0.00,22.4,22.4,00.0,31.2,24.2,08.1,0000.0,0001.59,0000.52,0000.29
2021-12-31 04:04:00,,0808.7,4.99,0.00,22.4,22.3,00.0,31.2,24.1,08.1,0000.0,0001.37,0000.47,0000.28
2021-12-31 04:05:00,,0808.9,5.01,0.00,22.4,22.2,00.0,31.3,24.1,08.2,0000.0,0001.31,0000.45,0000.26
2021-12-31 04:06:00,,0808.8,4.99,0.00,22.4,22.1,00.0,31.3,24.1,08.2,0000.0,0001.21,0000.39,0000.23
2021-12-31 04:07:00,,0808.5,5.01,0.00,22.4,22.0,00.0,31.3,24.1,08.2,0000.0,0001.11,0000.37,0000.22
2021-12-31 04:08:00,,0808.3,4.99,0.00,22.3,21.9,00.0,31.3,24.0,08.0,0000.0,0001.66,0000.36,0000.21
2021-12-31 04:09:00,,0808.2,4.99,0.00,22.3,21.8,00.0,31.3,24.0,08.0,0000.0,0002.17,0000.36,0000.21
2021-12-31 04:10:00,,0808.2,5.01,0.00,22.3,21.8,00.0,31.3,24.0,08.0,0000.0,0002.21,0000.38,0000.21
2021-12-31 04:11:00,,0808.1,5.01,0.00,22.3,21.7,00.0,31.3,23.9,08.1,0000.0,0002.25,0000.39,0000.20
2021-12-31 04:12:00,,0808.0,4.99,0.00,22.3,21.7,00.0,31.3,23.9,08.1,0000.0,0002.36,0000.43,0000.21
2021-12-31 04:13:00,,0808.1,5.01,0.00,22.2,21.6,00.0,31.3,23.9,08.2,0000.0,0002.19,0000.44,0000.20
2021-12-31 04:14:00,,0808.1,4.99,0.00,22.2,21.6,00.0,31.3,23.8,08.2,0000.0,0002.24,0000.48,0000.21
2021-12-31 04:15:00,,0808.1,5.02,0.00,22.2,21.5,00.0,31.3,23.8,08.3,0000.0,0002.29,0000.50,0000.21
2021-12-31 04:16:00,,0808.1,5.00,0.00,22.1,21.4,00.0,31.2,23.7,08.4,0000.0,0002.27,0000.48,0000.21
2021-12-31 04:17:00,,0808.2,5.00,0.00,22.1,21.4,00.0,31.2,23.6,08.8,0000.0,0002.29,0000.50,0000.21
2021-12-31 04:18:00,,0808.2,5.01,0.00,22.0,21.3,00.0,31.2,23.6,08.9,0000.0,0002.30,0000.49,0000.21
2021-12-31 04:19:00,,0808.0,4.99,0.00,22.0,21.3,00.0,31.2,23.6,09.0,0000.0,0001.24,0000.47,0000.20
2021-12-31 04:20:00,,0807.9,5.00,0.00,22.0,21.2,00.0,31.2,23.6,09.0,0000.0,0000.92,0000.46,0000.19
2021-12-31 04:21:00,,0807.8,4.99,0.00,22.0,21.2,00.0,31.2,23.6,08.9,0000.0,0000.82,0000.41,0000.19
2021-12-31 04:22:00,,0807.9,5.00,0.00,22.0,21.3,00.0,31.1,23.6,08.9,0000.0,0000.74,0000.38,0000.18
2021-12-31 04:23:00,,0807.8,5.01,0.00,22.0,21.3,00.0,31.1,23.7,09.2,0000.0,0000.60,0000.32,0000.17
2021-12-31 04:24:00,,0808.0,5.00,0.00,22.0,21.3,00.0,31.1,23.7,09.3,0000.0,0000.62,0000.34,0000.17
2021-12-31 04:25:00,,0807.9,4.99,0.00,22.0,21.4,00.0,31.1,23.7,09.3,0000.0,0000.56,0000.30,0000.16
2021-12-31 04:26:00,,0807.7,4.99,0.00,22.0,21.4,00.0,31.1,23.7,09.1,0000.0,0000.51,0000.29,0000.15
2021-12-31 04:27:00,,0807.9,5.01,0.00,22.0,21.4,00.0,31.1,23.7,09.2,0000.0,0000.53,0000.29,0000.14
2021-12-31 04:28:00,,0808.1,5.01,0.00,22.0,21.4,00.0,31.1,23.7,09.3,0000.0,0000.60,0000.31,0000.14
2021-12-31 04:29:00,,0808.1,5.00,0.00,22.0,21.4,00.0,31.1,23.7,09.3,0000.0,0000.67,0000.33,0000.15
2021-12-31 04:30:00,,0808.1,5.01,0.00,22.0,21.4,00.0,31.1,23.7,09.3,0000.0,0000.69,0000.32,0000.15
2021-12-31 04:31:00,,0808.1,4.99,0.00,22.0,21.4,00.0,31.1,23.7,09.2,0000.0,0000.66,0000.31,0000.15
2021-12-31 04:32:00,,0808.1,5.01,0.00,22.0,21.3,00.0,31.1,23.6,09.2,0000.0,0000.66,0000.32,0000.16
2021-12-31 04:33:00,,0808.1,4.99,0.00,22.0,21.6,00.0,31.1,23.7,09.2,0000.0,0000.75,0000.35,0000.16
2021-12-31 04:34:00,,0807.9,5.01,0.00,22.1,22.3,00.0,31.1,24.0,09.2,0000.0,0000.80,0000.37,0000.16
2021-12-31 04:35:00,,0808.0,5.00,0.00,22.3,23.0,00.0,31.2,24.2,09.1,0000.0,0000.77,0000.34,0000.17
2021-12-31 04:36:00,,0808.1,5.01,0.00,22.4,22.9,00.0,31.2,24.3,09.1,0000.0,0000.78,0000.35,0000.18
2021-12-31 04:37:00,,0808.0,5.01,0.00,22.4,22.7,00.0,31.2,24.3,09.1,0000.0,0000.90,0000.35,0000.18
2021-12-31 04:38:00,,0808.0,4.99,0.00,22.4,22.6,00.0,31.2,24.2,09.0,0000.0,0000.87,0000.33,0000.17
2021-12-31 04:39:00,,0807.8,5.00,0.00,22.4,22.4,00.0,31.2,24.2,09.0,0000.0,0000.82,0000.32,0000.17
2021-12-31 04:40:00,,0807.8,5.00,0.00,22.4,22.3,00.0,31.3,24.2,09.0,0000.0,0000.75,0000.31,0000.17
2021-12-31 04:41:00,,0808.0,5.00,0.00,22.4,22.2,00.0,31.3,24.2,09.0,0000.0,0000.83,0000.36,0000.17
2021-12-31 04:42:00,,0808.1,5.01,0.00,22.4,22.1,00.0,31.3,24.2,09.0,0000.0,0000.88,0000.38,0000.17
2021-12-31 04:43:00,,0808.0,4.99,0.00,22.4,22.1,00.0,31.3,24.2,09.0,0000.0,0000.86,0000.37,0000.16
2021-12-31 04:44:00,,0807.9,5.01,0.00,22.4,22.0,00.0,31.3,24.1,09.0,0000.0,0000.75,0000.33,0000.16
2021-12-31 04:45:00,,0807.8,4.99,0.00,22.4,21.9,00.0,31.3,24.1,09.0,0000.0,0001.06,0000.33,0000.16
2021-12-31 04:46:00,,0808.0,5.00,0.00,22.3,21.8,00.0,31.3,24.0,09.0,0000.0,0001.49,0000.35,0000.15
2021-12-31 04:47:00,,0808.0,5.01,0.00,22.3,21.7,00.0,31.3,23.9,08.9,0000.0,0001.79,0000.36,0000.15
2021-12-31 04:48:00,,0807.9,4.98,0.00,22.2,21.6,00.0,31.3,23.8,08.9,0000.0,0001.76,0000.36,0000.16
2021-12-31 04:49:00,,0808.0,5.01,0.00,22.2,21.5,00.0,31.3,23.7,08.9,0000.0,0001.76,0000.38,0000.17
2021-12-31 04:50:00,,0808.1,4.99,0.00,22.1,21.4,00.0,31.3,23.7,08.9,0000.0,0001.77,0000.39,0000.17
2021-12-31 04:51:00,,0808.0,4.99,0.00,22.1,21.3,00.0,31.2,23.6,08.9,0000.0,0001.86,0000.44,0000.18
2021-12-31 04:52:00,,0807.9,5.00,0.00,22.0,21.3,00.0,31.2,23.6,08.9,0000.0,0001.77,0000.41,0000.19
2021-12-31 04:53:00,,0808.1,4.99,0.00,22.0,21.2,00.0,31.2,23.6,09.0,0000.0,0001.72,0000.39,0000.20
2021-12-31 04:54:00,,0808.0,5.00,0.00,22.0,21.2,00.0,31.2,23.6,08.9,0000.0,0001.75,0000.41,0000.21
2021-12-31 04:55:00,,0808.0,4.99,0.00,22.0,21.2,00.0,31.2,23.6,08.9,0000.0,0001.83,0000.43,0000.21
2021-12-31 04:56:00,,0808.2,4.99,0.00,22.0,21.2,00.0,31.1,23.6,08.9,0000.0,0001.65,0000.43,0000.22
2021-12-31 04:57:00,,0808.3,5.02,0.00,22.0,21.3,00.0,31.1,23.6,09.0,0000.0,0001.27,0000.40,0000.22
2021-12-31 04:58:00,,0808.2,4.98,0.00,22.0,21.3,00.0,31.1,23.6,09.0,0000.0,0001.08,0000.40,0000.22
2021-12-31 04:59:00,,0808.5,5.00,0.00,22.0,21.3,00.0,31.1,23.6,09.1,0000.0,0001.06,0000.42,0000.22
